Skip Page Navigation
NASA JPL Caltech
NASA Logo - Jet Propulsion Laboratory + View the NASA Portal
+ Near-Earth Object (NEO) Program
Search JPL
JPL Home Earth Solar System Stars & Galaxies Technology
JPL Solar System Dynamics
BODIES ORBITS EPHEMERIDES TOOLS PHYSICAL DATA DISCOVERY FAQ SITE MAP
JPL Small-Body Database Browser
Search: [ help ]  
22298 (1990 EJ)
Classification: Main-belt Asteroid          SPK-ID: 2022298
Ephemeris | Orbit Diagram | Orbital Elements | Physical Parameters | Discovery Circumstances | Close-Approach Data ]

[ show orbit diagram ]
Orbital Elements at Epoch 2457000.5 (2014-Dec-09.0) TDB
Reference: JPL 6 (heliocentric ecliptic J2000)
 Element Value Uncertainty (1-sigma)   Units 
e .1604788630073826 9.9391e-08  
a 3.101386207492335 3.7241e-08 AU
q 2.603679275167187 3.0605e-07 AU
i 8.862557334016673 1.1112e-05 deg
node 345.52694870 4.337e-05 deg
peri 212.7916117151104 5.1103e-05 deg
M 166.2041917261266 2.3207e-05 deg
tp 2456079.474455444062
(2012-May-31.97445544)
0.00012977 JED
period 1994.950864936679
5.46
3.5932e-05
9.838e-08
d
yr
n .180455572278682 3.2503e-09 deg/d
Q 3.599093139817483 4.3217e-08 AU
  Orbit Determination Parameters
   # obs. used (total)      902  
   data-arc span      16927 days (46.34 yr)  
   first obs. used      1968-02-25  
   last obs. used      2014-06-30  
   planetary ephem.      DE431  
   SB-pert. ephem.      SB431-BIG16  
   condition code      0  
   fit RMS      .50836  
   data source      ORB  
   producer      Otto Matic  
   solution date      2014-Jul-14 12:48:17  

Additional Information
 Earth MOID = 1.60913 AU 
 T_jup = 3.184 
[ show covariance matrix ]

Ephemeris | Orbit Diagram | Orbital Elements | Physical Parameters | Discovery Circumstances | Close-Approach Data ]

Physical Parameter Table
Parameter Symbol Value Units Sigma Reference Notes
absolute magnitude H 12.4 mag n/a MPO266072  

22298 (1990 EJ)          Discovered 1990-Mar-02 by Ueda, S., Kaneda, H. at Kushiro (399)
Reference: 20010309/Numbers.arcLast Updated: 2004-04-19

[ show close-approach data ]
Alternate Designations
 1990 EJ = 1968 DJ = 1998 SE110 
Ephemeris | Orbit Diagram | Orbital Elements | Physical Parameters | Discovery Circumstances | Close-Approach Data ]
ABOUT SSD CREDITS/AWARDS PRIVACY/COPYRIGHT GLOSSARY LINKS
FirstGov 2014-Aug-29 22:24 UT
(server date/time)  
NASA Home Page
Site Manager:   Donald K. Yeomans
Webmaster  Alan B. Chamberlin